Location: Votelez
(50.0000°N, 15.0000°E)
Time: 05:08:51
(UTC+01:00)

ARIANE 6 FM1 Upper Stage - Pass Details

Date: 15 February 2026
Orbit: 523 x 607 km, 62.0° (Epoch: 11 March)

Event Time Altitude Azimuth Distance (km) Brightness Sun altitude
Rises 18:38:00 0° 315° (NW) 2,663 6.8 -13.4°
Reaches altitude 10° 18:40:14 10° 320° (NW) 1,769 5.7 -13.7°
Maximum altitude 18:44:07 54° 39° (NE) 646 2.7 -14.3°
Enters shadow 18:46:11 25° 107° (ESE) 1,084 3.6 -14.7°
